Regional Weather Roundup
Issued by NWS Kansas City/Pleasant Hill, MO

Home | Current Version | Previous Version | Graphics & Text | Print | Product List | Glossary Off
Versions: 1 2 3 4 5 6 7 8 9 10 11 12 13 14 15 16 17 18 19 20 21 22 23 24 25 26 27 28 29 30 31 32 33 34 35 36 37 38 39 40 41 42 43 44 45 46 47 48 49 50

000
ASUS43 KEAX 301410
RWREAX

WEATHER ROUNDUP FOR EASTERN KANSAS AND NORTHWEST MISSOURI
NATIONAL WEATHER SERVICE KANSAS CITY/PLEASANT HILL MO
900 AM CDT SAT JUL 30 2016

KSZ040-057-103>105-MOZ028-029-037-043-301500-
...KANSAS CITY METROPOLITAN AREA...

CITY           SKY/WX    TMP DP  RH WIND       PRES   REMARKS
K.C. INTL      MOSUNNY   71  63  75 E6        30.03R
K.C. DOWNTOWN  MOSUNNY   73  64  73 E5        30.02R
LEES SUMMIT    SUNNY     72  65  78 NE6       30.03R
OLATHE - IXD   MOSUNNY   73  65  75 E7        30.03R
OLATHE - OJC   MOSUNNY   72  63  73 E7        30.02S
LAWRENCE       PTSUNNY   72  65  78 CALM      30.03R

$$

MOZ001>008-011>017-020>025-030>033-038>040-044>046-053-054-301500-
...NORTHERN AND CENTRAL MISSOURI...

CITY           SKY/WX    TMP DP  RH WIND       PRES   REMARKS
ST. JOSEPH     SUNNY     71  65  81 N3        30.03R
MOSBY          SUNNY     70  64  83 CALM      30.03R
WHITEMAN AFB   MOSUNNY   71  70  95 E2        30.01S
CLINTON        MOSUNNY   72  68  88 CALM      30.03R
SEDALIA        SUNNY     74  66  76 E3        30.03S
WARSAW         NOT AVBL
CHILLICOTHE      N/A     73  66  78 N3        30.03S
KIRKSVILLE     PTSUNNY   73  65  75 N7        30.02R

$$

MOZ041-047>049-056>058-063>065-088>090-097-301500-
...EASTERN AND SOUTHERN MISSOURI...

CITY           SKY/WX    TMP DP  RH WIND       PRES   REMARKS
ST. LOUIS INTL MOSUNNY   79  67  66 NW5       30.00R
SPIRIT OF STL  SUNNY     76  68  76 CALM      29.99R
COLUMBIA       SUNNY     73  67  81 CALM      30.02R
JEFFERSON CITY SUNNY     73  68  84 CALM      30.01R
ROLLA          SUNNY     74  68  81 SW5       30.02R
OSAGE BEACH    PTSUNNY   73  70  90 CALM      30.03R
SPRINGFIELD    SUNNY     76  70  82 CALM      30.03R
BRANSON        PTSUNNY   73  73 100 CALM      30.05S FOG
JOPLIN         SUNNY     79  71  76 VRB3      30.02R
WEST PLAINS    SUNNY     78  69  73 CALM      30.05R

$$

IAZ060-094-KSZ022-034>040-054-083-096-NEZ052-066-093-301500-
...KANSAS...SOUTHEAST NEBRASKA AND IOWA...

CITY           SKY/WX    TMP DP  RH WIND       PRES   REMARKS
TOPEKA         CLOUDY    71  64  78 CALM      30.03R
MANHATTAN      PTSUNNY   71  65  81 E5        30.02R
EMPORIA        MOSUNNY   73  66  78 E3        30.02R
CHANUTE        SUNNY     76  71  85 SE6       30.01R
WICHITA        LGT RAIN  74  70  87 SW6       30.02R
OMAHA          PTSUNNY   69  63  81 CALM      30.05S
FALLS CITY     SUNNY     70  66  87 VRB3      30.03R
LAMONI         CLOUDY    68  65  90 N6        30.03R
DES MOINES     CLOUDY    71  65  81 NE3       30.02R

$$




USA.gov is the U.S. government's official web portal to all federal, state and local government web resources and services.